Regional Weather Roundup
Issued by NWS Glasgow, MT

Home | Current Version | Previous Version | Text Only | Print | Product List | Glossary On
Versions: 1 2 3 4 5 6 7 8 9 10 11 12 13 14 15 16 17 18 19 20 21 22 23 24 25 26 27 28
000
ASUS45 KGGW 292015
RWRGGW
HOURLY REGIONAL WEATHER ROUNDUP FOR NORTHEAST MONTANA
NATIONAL WEATHER SERVICE GLASGOW MONTANA
200 PM MDT SUN MAY 29 2016

NOTE: "FAIR" INDICATES FEW OR NO CLOUDS BELOW 12,000 FEET WITH NO
SIGNIFICANT WEATHER AND/OR OBSTRUCTIONS TO VISISBILITY.

NORTHEAST MONTANA


CITY           SKY/WX    TMP DP  RH WIND       PRES   REMARKS
GLASGOW        SUNNY     71  36  27 W10       29.95F
PLENTYWOOD       N/A     70  30  23 W13G21      N/A
WOLF POINT     SUNNY     75  37  25 SW15G21   29.97S
JORDAN           N/A     75  34  22 W18G25    29.97F
WINNETT          N/A     72  30  21 S3G13       N/A
SIDNEY         SUNNY     75  37  25 W12       29.96F
GLENDIVE       SUNNY     75  43  31 W7        30.00F
MALTA            N/A     74  38  27 W8G17       N/A
SCOBEY           N/A     70  36  28 SW18      29.95F
OPHEIM           N/A     63  36  36 W9        29.80F

FORT PECK REPORTS


CITY           SKY/WX    TMP DP  RH WIND       PRES   REMARKS
FORT PECK        N/A     70  37  29 S5          N/A
THE PINES        N/A     73  35  25 SW7         N/A

SOUTHEAST MONTANA


CITY           SKY/WX    TMP DP  RH WIND       PRES   REMARKS
BILLINGS       MOSUNNY   72  39  30 SW6       30.01F
MILES CITY     SUNNY     75  39  27 VRB3      29.98F
BAKER          SUNNY     76  36  23 VRB6      30.01F
LIVINGSTON     SUNNY     70  35  27 NW9       30.01F

CENTRAL MONTANA


CITY           SKY/WX    TMP DP  RH WIND       PRES   REMARKS
HAVRE          SUNNY     70  38  31 SW16      29.93F
LEWISTOWN      SUNNY     69  37  30 N8        30.01F
GREAT FALLS    MOSUNNY   70  33  25 SW16      29.96F
CUT BANK         N/A     66  36  32 W26G33    29.95F
HELENA         MOSUNNY   69  35  28 SE10      30.00F
BUTTE          CLOUDY    64  25  22 SW12G22   30.06F
BOZEMAN        SUNNY     68  39  34 NW9       30.04F

WESTERN MONTANA


CITY           SKY/WX    TMP DP  RH WIND       PRES   REMARKS
MISSOULA       MOSUNNY   63  42  46 CALM      30.02R
KALISPELL      NOT AVBL

NORTH DAKOTA


CITY           SKY/WX    TMP DP  RH WIND       PRES   REMARKS
WILLISTON      SUNNY     76  35  22 W10G18    29.96F
DICKINSON      MOSUNNY   72  38  29 W8        29.97F
MINOT          MOSUNNY   77  38  24 W14       29.96S
BISMARCK       MOSUNNY   76  43  30 VRB6G17   30.00F

SOUTHERN SASKATCHEWAN


CITY           SKY/WX    TMP DP  RH WIND       PRES   REMARKS
REGINA         PTSUNNY   70  39  32 SW16G28   29.90F
MOOSE JAW      MOSUNNY   70  41  35 W13G22    29.91S
ESTEVAN        MOSUNNY   72  43  35 W13G22    29.94F
SWIFT CURRENT  SUNNY     66  41  39 W18G25    29.90S





USA.gov is the U.S. government's official web portal to all federal, state and local government web resources and services.